OAE401 EIDW-EETN

Flight info

Callsign OAE401
Flight time 2h 22m
Altitude 41000
Route ROTEV3J ROTEV DCT GOTNA DCT ALOTI DCT RUMOG DCT PIPEX DCT LUNIP DCT MOGLU DCT NISIX DCT OSTOT DCT OSMUR
Aircraft B772/H-SDE3FGHIJ1J4J7M3P2RWXYZ/LB1D1G1

Departure

Time 2026-05-05 17:26
Airport Dublin Airport (EIDW)

Arrival

Time 2026-05-05 19:48
Airport Lennart Meri Tallinn Airport (EETN)
Time Latitude Longitude Altitude Speed Heading
2026-05-05 16:53 53.43297 -6.25218 215 ft 0 kts 47°
2026-05-05 17:16 53.43284 -6.25238 223 ft 4 kts 22°
2026-05-05 17:16 53.43260 -6.25255 215 ft 4 kts 31°
2026-05-05 17:16 53.43244 -6.25276 217 ft 0 kts 52°
2026-05-05 17:19 53.43244 -6.25273 217 ft 3 kts 54°
2026-05-05 17:19 53.43245 -6.25147 220 ft 20 kts 95°
2026-05-05 17:19 53.43226 -6.24827 222 ft 34 kts 95°
2026-05-05 17:20 53.43197 -6.24477 218 ft 30 kts 72°
2026-05-05 17:20 53.43341 -6.24454 222 ft 22 kts 307°
2026-05-05 17:20 53.43363 -6.24748 221 ft 39 kts 275°
2026-05-05 17:20 53.43389 -6.25258 222 ft 43 kts 275°
2026-05-05 17:21 53.43381 -6.25624 224 ft 21 kts 221°
2026-05-05 17:21 53.43271 -6.25583 225 ft 17 kts 156°
2026-05-05 17:21 53.43163 -6.25504 220 ft 17 kts 157°
2026-05-05 17:22 53.42945 -6.25348 221 ft 17 kts 156°
2026-05-05 17:22 53.42837 -6.25270 219 ft 17 kts 156°
2026-05-05 17:22 53.42734 -6.25174 224 ft 17 kts 135°
2026-05-05 17:22 53.42640 -6.25057 221 ft 17 kts 157°
2026-05-05 17:23 53.42531 -6.24982 218 ft 17 kts 158°
2026-05-05 17:23 53.42422 -6.24907 217 ft 17 kts 158°
2026-05-05 17:23 53.42314 -6.24826 215 ft 17 kts 155°
2026-05-05 17:23 53.42204 -6.24758 221 ft 17 kts 173°
2026-05-05 17:24 53.42105 -6.24842 221 ft 11 kts 224°
2026-05-05 17:24 53.42074 -6.24894 224 ft 6 kts 225°
2026-05-05 17:24 53.42029 -6.24982 221 ft 17 kts 266°
2026-05-05 17:24 53.42074 -6.25027 217 ft 0 kts 341°
2026-05-05 17:25 53.42505 -6.25334 217 ft 111 kts 336°
2026-05-05 17:25 53.43450 -6.26021 373 ft 171 kts 338°
2026-05-05 17:26 53.44479 -6.26741 1732 ft 157 kts 339°
2026-05-05 17:26 53.45488 -6.27462 2881 ft 158 kts 338°
2026-05-05 17:26 53.46504 -6.28202 4024 ft 159 kts 336°
2026-05-05 17:26 53.47532 -6.28961 4859 ft 171 kts 336°
2026-05-05 17:27 53.48733 -6.29838 5199 ft 206 kts 336°
2026-05-05 17:27 53.50158 -6.30880 5491 ft 242 kts 336°
2026-05-05 17:27 53.51821 -6.31657 6111 ft 258 kts 360°
2026-05-05 17:27 53.53603 -6.31014 6949 ft 267 kts 15°
2026-05-05 17:28 53.55397 -6.30072 8001 ft 271 kts 15°
2026-05-05 17:28 53.57204 -6.29129 9175 ft 274 kts 15°
2026-05-05 17:28 53.59045 -6.28181 10243 ft 279 kts 15°
2026-05-05 17:28 53.60974 -6.27204 10833 ft 304 kts 15°
2026-05-05 17:29 53.63065 -6.26161 11585 ft 320 kts 15°
2026-05-05 17:29 53.65231 -6.25089 12645 ft 328 kts 14°
2026-05-05 17:29 53.67443 -6.24000 13854 ft 334 kts 14°
2026-05-05 17:29 53.69694 -6.22897 14976 ft 339 kts 14°
2026-05-05 17:30 53.71978 -6.21781 16078 ft 345 kts 14°
2026-05-05 17:30 53.74309 -6.20644 17139 ft 352 kts 13°
2026-05-05 17:30 53.76648 -6.19502 18186 ft 358 kts 13°
2026-05-05 17:30 53.79063 -6.18323 19154 ft 365 kts 13°
2026-05-05 17:31 53.81520 -6.17122 20168 ft 371 kts 13°
2026-05-05 17:31 53.84020 -6.15898 21192 ft 376 kts 13°
2026-05-05 17:31 53.86550 -6.14657 22208 ft 381 kts 13°
2026-05-05 17:31 53.89119 -6.13396 23157 ft 387 kts 13°
2026-05-05 17:32 53.91729 -6.12113 23994 ft 394 kts 13°
2026-05-05 17:32 53.94380 -6.10808 24770 ft 399 kts 13°
2026-05-05 17:32 53.97069 -6.09483 25575 ft 404 kts 13°
2026-05-05 17:32 53.99779 -6.08146 26386 ft 408 kts 13°
2026-05-05 17:33 54.02511 -6.06740 27186 ft 413 kts 16°
2026-05-05 17:33 54.05196 -6.04885 27944 ft 420 kts 22°
2026-05-05 17:33 54.07855 -6.02731 28655 ft 426 kts 23°
2026-05-05 17:33 54.10535 -6.00501 29360 ft 432 kts 24°
2026-05-05 17:34 54.13246 -5.98233 30037 ft 437 kts 24°
2026-05-05 17:34 54.15990 -5.95946 30606 ft 441 kts 24°
2026-05-05 17:34 54.18763 -5.93646 31165 ft 445 kts 24°
2026-05-05 17:34 54.21565 -5.91331 31717 ft 449 kts 23°
2026-05-05 17:35 54.23428 -5.89795 32072 ft 451 kts 23°
2026-05-05 17:35 54.26272 -5.87451 32588 ft 455 kts 23°
2026-05-05 17:35 54.29133 -5.85092 33077 ft 459 kts 23°
2026-05-05 17:35 54.32025 -5.82703 33565 ft 463 kts 23°
2026-05-05 17:36 54.34936 -5.80294 34037 ft 466 kts 23°
2026-05-05 17:36 54.37870 -5.77862 34427 ft 470 kts 23°
2026-05-05 17:36 54.41786 -5.74608 34932 ft 474 kts 23°
2026-05-05 17:36 54.43798 -5.72933 35196 ft 476 kts 23°
2026-05-05 17:37 54.46793 -5.70437 35564 ft 479 kts 24°
2026-05-05 17:37 54.49802 -5.67926 35890 ft 482 kts 24°
2026-05-05 17:37 54.52824 -5.65400 36323 ft 483 kts 24°
2026-05-05 17:37 54.55820 -5.62800 36787 ft 484 kts 28°
2026-05-05 17:38 54.58583 -5.59593 37224 ft 486 kts 36°
2026-05-05 17:38 54.61119 -5.55728 37679 ft 488 kts 43°
2026-05-05 17:38 54.63353 -5.51309 38107 ft 490 kts 51°
2026-05-05 17:38 54.65403 -5.46591 38471 ft 492 kts 52°
2026-05-05 17:39 54.67441 -5.41736 38868 ft 492 kts 53°
2026-05-05 17:39 54.69411 -5.36994 39238 ft 491 kts 53°
2026-05-05 17:39 54.71405 -5.32206 39605 ft 491 kts 52°
2026-05-05 17:39 54.73408 -5.27424 39938 ft 491 kts 52°
2026-05-05 17:40 54.75420 -5.22653 40245 ft 491 kts 52°
2026-05-05 17:40 54.77437 -5.17889 40579 ft 491 kts 52°
2026-05-05 17:40 54.79460 -5.13119 40895 ft 491 kts 52°
2026-05-05 17:41 54.83523 -5.03530 41040 ft 497 kts 52°
2026-05-05 17:41 54.87584 -4.93908 41052 ft 504 kts 52°
2026-05-05 17:42 54.91743 -4.84004 41063 ft 510 kts 52°
2026-05-05 17:42 54.95935 -4.73977 41043 ft 513 kts 52°
2026-05-05 17:43 55.00124 -4.63914 41037 ft 514 kts 52°
2026-05-05 17:43 55.04302 -4.53836 41035 ft 512 kts 53°
2026-05-05 17:44 55.08459 -4.43771 41034 ft 509 kts 53°
2026-05-05 17:44 55.12582 -4.33745 41041 ft 507 kts 53°
2026-05-05 17:45 55.16681 -4.23740 41040 ft 505 kts 53°
2026-05-05 17:45 55.20765 -4.13732 41059 ft 505 kts 53°
2026-05-05 17:46 55.24818 -4.03758 41057 ft 506 kts 53°
2026-05-05 17:46 55.28846 -3.93806 41060 ft 507 kts 53°
2026-05-05 17:47 55.32952 -3.83619 41055 ft 508 kts 53°
2026-05-05 17:47 55.37001 -3.73531 41074 ft 509 kts 53°
2026-05-05 17:48 55.41070 -3.63352 41073 ft 509 kts 53°
2026-05-05 17:48 55.45138 -3.53135 41077 ft 509 kts 53°
2026-05-05 17:49 55.49195 -3.42901 41089 ft 510 kts 53°
2026-05-05 17:49 55.53248 -3.32636 41085 ft 510 kts 53°
2026-05-05 17:50 55.57297 -3.22337 41085 ft 510 kts 54°
2026-05-05 17:50 55.61338 -3.12015 41088 ft 510 kts 54°
2026-05-05 17:51 55.65370 -3.01674 41094 ft 510 kts 54°
2026-05-05 17:51 55.69345 -2.91435 41092 ft 510 kts 54°
2026-05-05 17:52 55.73354 -2.81066 41100 ft 510 kts 54°
2026-05-05 17:52 55.77359 -2.70662 41111 ft 511 kts 54°
2026-05-05 17:53 55.81367 -2.60205 41101 ft 512 kts 54°
2026-05-05 17:53 55.85364 -2.49734 41099 ft 512 kts 54°
2026-05-05 17:54 55.89355 -2.39233 41100 ft 512 kts 54°
2026-05-05 17:54 55.93337 -2.28710 41099 ft 512 kts 54°
2026-05-05 17:55 55.97313 -2.18159 41101 ft 512 kts 54°
2026-05-05 17:55 56.01277 -2.07595 41104 ft 512 kts 54°
2026-05-05 17:56 56.05193 -1.97112 41110 ft 516 kts 55°
2026-05-05 17:56 56.09202 -1.86336 41108 ft 523 kts 55°
2026-05-05 17:57 56.13245 -1.75420 41111 ft 528 kts 55°
2026-05-05 17:57 56.17310 -1.64389 41104 ft 531 kts 55°
2026-05-05 17:58 56.21358 -1.53358 41099 ft 533 kts 55°
2026-05-05 17:58 56.25428 -1.42212 41098 ft 533 kts 56°
2026-05-05 17:59 56.29487 -1.31050 41103 ft 533 kts 56°
2026-05-05 17:59 56.33531 -1.19876 41102 ft 532 kts 56°
2026-05-05 18:00 56.37561 -1.08689 41091 ft 531 kts 56°
2026-05-05 18:00 56.41515 -0.97666 41099 ft 530 kts 56°
2026-05-05 18:01 56.45537 -0.86399 41095 ft 530 kts 56°
2026-05-05 18:01 56.49494 -0.75262 41090 ft 529 kts 56°
2026-05-05 18:02 56.53466 -0.64034 41090 ft 529 kts 56°
2026-05-05 18:02 56.57423 -0.52792 41103 ft 529 kts 56°
2026-05-05 18:03 56.61376 -0.41512 41094 ft 530 kts 56°
2026-05-05 18:03 56.65322 -0.30199 41087 ft 530 kts 56°
2026-05-05 18:04 56.69258 -0.18859 41088 ft 530 kts 56°
2026-05-05 18:04 56.73183 -0.07501 41087 ft 530 kts 56°
2026-05-05 18:05 56.77047 0.03734 41081 ft 530 kts 57°
2026-05-05 18:05 56.80954 0.15149 41084 ft 530 kts 57°
2026-05-05 18:06 56.84850 0.26589 41106 ft 531 kts 57°
2026-05-05 18:06 56.88741 0.38065 41081 ft 531 kts 57°
2026-05-05 18:07 56.92627 0.49583 41074 ft 532 kts 57°
2026-05-05 18:07 56.96501 0.61119 41071 ft 532 kts 57°
2026-05-05 18:08 57.00367 0.72688 41074 ft 532 kts 57°
2026-05-05 18:08 57.04227 0.84296 41089 ft 533 kts 57°
2026-05-05 18:09 57.08077 0.95927 41069 ft 533 kts 57°
2026-05-05 18:09 57.11849 1.07383 41089 ft 533 kts 57°
2026-05-05 18:10 57.15687 1.19093 41070 ft 534 kts 57°
2026-05-05 18:10 57.19511 1.30816 41071 ft 534 kts 57°
2026-05-05 18:11 57.23329 1.42583 41066 ft 534 kts 57°
2026-05-05 18:11 57.27134 1.54364 41065 ft 534 kts 58°
2026-05-05 18:12 57.30932 1.66184 41068 ft 534 kts 58°
2026-05-05 18:12 57.34719 1.78029 41063 ft 534 kts 58°
2026-05-05 18:13 57.38497 1.89906 41075 ft 535 kts 58°
2026-05-05 18:13 57.42197 2.01593 41065 ft 535 kts 58°
2026-05-05 18:14 57.45957 2.13532 41062 ft 536 kts 58°
2026-05-05 18:14 57.49705 2.25494 41050 ft 536 kts 58°
2026-05-05 18:15 57.53468 2.37563 41049 ft 536 kts 58°
2026-05-05 18:15 57.57173 2.49505 41040 ft 536 kts 58°
2026-05-05 18:16 57.60890 2.61549 41040 ft 536 kts 58°
2026-05-05 18:16 57.64601 2.73638 41047 ft 537 kts 58°
2026-05-05 18:17 57.68304 2.85759 41044 ft 537 kts 59°
2026-05-05 18:17 57.71998 2.97915 41045 ft 538 kts 59°
2026-05-05 18:18 57.75636 3.09949 41046 ft 538 kts 59°
2026-05-05 18:18 57.79307 3.22160 41048 ft 538 kts 59°
2026-05-05 18:19 57.82966 3.34391 41045 ft 538 kts 59°
2026-05-05 18:19 57.86618 3.46659 41043 ft 538 kts 59°
2026-05-05 18:20 57.90179 3.59007 41048 ft 540 kts 63°
2026-05-05 18:20 57.92845 3.72229 41042 ft 541 kts 72°
2026-05-05 18:21 57.95005 3.85799 41040 ft 542 kts 73°
2026-05-05 18:21 57.97152 3.99407 41034 ft 542 kts 72°
2026-05-05 18:22 57.99302 4.12775 41033 ft 542 kts 72°
2026-05-05 18:22 58.01494 4.26360 41033 ft 543 kts 72°
2026-05-05 18:23 58.03676 4.39991 41027 ft 543 kts 72°
2026-05-05 18:23 58.05837 4.53627 41032 ft 543 kts 73°
2026-05-05 18:24 58.07625 4.64998 41029 ft 543 kts 73°
2026-05-05 18:24 58.09760 4.78685 41024 ft 543 kts 73°
2026-05-05 18:25 58.11882 4.92392 41017 ft 544 kts 73°
2026-05-05 18:25 58.13967 5.05965 41022 ft 544 kts 73°
2026-05-05 18:26 58.16068 5.19757 41019 ft 545 kts 73°
2026-05-05 18:26 58.18153 5.33561 41017 ft 545 kts 73°
2026-05-05 18:27 58.20226 5.47388 41011 ft 545 kts 73°
2026-05-05 18:27 58.22564 5.61067 41029 ft 545 kts 69°
2026-05-05 18:28 58.26594 5.81237 41014 ft 545 kts 68°
2026-05-05 18:28 58.29265 5.94706 41009 ft 545 kts 69°
2026-05-05 18:29 58.31836 6.07951 41008 ft 545 kts 69°
2026-05-05 18:29 58.34437 6.21517 41022 ft 546 kts 69°
2026-05-05 18:30 58.37030 6.35120 41012 ft 547 kts 69°
2026-05-05 18:30 58.39613 6.48762 41002 ft 547 kts 69°
2026-05-05 18:31 58.42185 6.62432 40997 ft 548 kts 69°
2026-05-05 18:31 58.44742 6.76117 40991 ft 547 kts 69°
2026-05-05 18:32 58.47284 6.89825 40978 ft 548 kts 70°
2026-05-05 18:32 58.49779 7.03373 40978 ft 548 kts 70°
2026-05-05 18:33 58.52296 7.17135 40983 ft 549 kts 70°
2026-05-05 18:33 58.54782 7.30838 40973 ft 549 kts 70°
2026-05-05 18:34 58.57273 7.44663 40977 ft 549 kts 70°
2026-05-05 18:34 58.59746 7.58492 40956 ft 549 kts 70°
2026-05-05 18:35 58.62206 7.72348 40967 ft 549 kts 70°
2026-05-05 18:35 58.64652 7.86230 40962 ft 549 kts 70°
2026-05-05 18:36 58.67075 8.00092 40964 ft 549 kts 71°
2026-05-05 18:36 58.69465 8.13863 40952 ft 549 kts 71°
2026-05-05 18:37 58.71865 8.27796 40953 ft 549 kts 71°
2026-05-05 18:37 58.74252 8.41763 40939 ft 549 kts 71°
2026-05-05 18:38 58.76622 8.55737 40952 ft 550 kts 71°
2026-05-05 18:38 58.78984 8.69771 40936 ft 550 kts 71°
2026-05-05 18:39 58.81331 8.83826 40936 ft 550 kts 71°
2026-05-05 18:39 58.83665 8.97904 40917 ft 550 kts 71°
2026-05-05 18:40 58.85935 9.11827 40927 ft 550 kts 72°
2026-05-05 18:40 58.88147 9.25984 40916 ft 550 kts 73°
2026-05-05 18:41 58.90334 9.40176 40918 ft 550 kts 73°
2026-05-05 18:41 58.92513 9.54359 40918 ft 550 kts 73°
2026-05-05 18:42 58.94687 9.68572 40913 ft 550 kts 73°
2026-05-05 18:42 58.96831 9.82714 40925 ft 551 kts 73°
2026-05-05 18:43 58.98977 9.96983 40921 ft 552 kts 73°
2026-05-05 18:43 59.01079 10.11087 40914 ft 552 kts 73°
2026-05-05 18:44 59.03196 10.25414 40912 ft 553 kts 73°
2026-05-05 18:44 59.05299 10.39772 40919 ft 553 kts 73°
2026-05-05 18:45 59.07384 10.54137 40963 ft 553 kts 74°
2026-05-05 18:45 59.09454 10.68525 40985 ft 553 kts 74°
2026-05-05 18:46 59.11510 10.82936 40998 ft 553 kts 74°
2026-05-05 18:46 59.13548 10.97356 40983 ft 553 kts 74°
2026-05-05 18:47 59.15536 11.11538 40988 ft 554 kts 74°
2026-05-05 18:47 59.17207 11.26180 40917 ft 554 kts 85°
2026-05-05 18:48 59.17083 11.41230 40926 ft 552 kts 99°
2026-05-05 18:48 59.15295 11.55617 40914 ft 549 kts 108°
2026-05-05 18:49 59.13525 11.70101 40922 ft 552 kts 100°
2026-05-05 18:49 59.12997 11.85023 40930 ft 554 kts 90°
2026-05-05 18:50 59.13598 11.99968 40915 ft 555 kts 84°
2026-05-05 18:50 59.14466 12.14732 40920 ft 555 kts 84°
2026-05-05 18:51 59.15312 12.29670 40917 ft 555 kts 84°
2026-05-05 18:51 59.16093 12.44613 40911 ft 555 kts 85°
2026-05-05 18:52 59.16837 12.59578 40915 ft 555 kts 85°
2026-05-05 18:52 59.17562 12.74522 40914 ft 555 kts 85°
2026-05-05 18:53 59.18275 12.89496 40915 ft 554 kts 85°
2026-05-05 18:53 59.18965 13.04276 40897 ft 554 kts 85°
2026-05-05 18:54 59.19646 13.19253 40898 ft 554 kts 85°
2026-05-05 18:54 59.20309 13.34242 40930 ft 554 kts 86°
2026-05-05 18:55 59.20955 13.49221 40902 ft 555 kts 86°
2026-05-05 18:55 59.21585 13.64247 40889 ft 555 kts 86°
2026-05-05 18:56 59.22201 13.79262 40898 ft 555 kts 86°
2026-05-05 18:56 59.22798 13.94291 40899 ft 556 kts 86°
2026-05-05 18:57 59.23367 14.09075 40904 ft 556 kts 86°
2026-05-05 18:57 59.23927 14.24134 40905 ft 556 kts 86°
2026-05-05 18:58 59.24470 14.39193 40899 ft 556 kts 86°
2026-05-05 18:58 59.24998 14.54283 40901 ft 556 kts 86°
2026-05-05 18:59 59.25504 14.69274 40905 ft 557 kts 87°
2026-05-05 18:59 59.25997 14.84372 40902 ft 557 kts 87°
2026-05-05 19:00 59.26473 14.99493 40887 ft 557 kts 87°
2026-05-05 19:00 59.26925 15.14429 40910 ft 556 kts 87°
2026-05-05 19:01 59.27365 15.29528 40949 ft 556 kts 88°
2026-05-05 19:01 59.27787 15.44636 40908 ft 557 kts 88°
2026-05-05 19:02 59.28193 15.59765 40898 ft 557 kts 88°
2026-05-05 19:02 59.28580 15.74861 40886 ft 556 kts 88°
2026-05-05 19:03 59.28950 15.89961 40889 ft 555 kts 88°
2026-05-05 19:03 59.29297 16.04872 40892 ft 555 kts 88°
2026-05-05 19:04 59.29632 16.19961 40886 ft 555 kts 88°
2026-05-05 19:04 59.29949 16.35047 40876 ft 554 kts 89°
2026-05-05 19:05 59.30248 16.50109 40892 ft 554 kts 89°
2026-05-05 19:05 59.30529 16.65171 40893 ft 554 kts 89°
2026-05-05 19:06 59.30793 16.80240 40889 ft 554 kts 89°
2026-05-05 19:06 59.31038 16.95189 40882 ft 554 kts 89°
2026-05-05 19:07 59.31229 17.07642 40870 ft 553 kts 89°
2026-05-05 19:07 59.31477 17.25152 40883 ft 553 kts 90°
2026-05-05 19:08 59.31672 17.40229 40881 ft 554 kts 90°
2026-05-05 19:08 59.31850 17.55328 40880 ft 555 kts 90°
2026-05-05 19:09 59.32010 17.70425 40856 ft 555 kts 90°
2026-05-05 19:09 59.32235 17.85474 40877 ft 555 kts 89°
2026-05-05 19:10 59.32577 18.00423 40880 ft 555 kts 88°
2026-05-05 19:10 59.32912 18.15498 40889 ft 555 kts 89°
2026-05-05 19:11 59.33203 18.30495 40887 ft 555 kts 89°
2026-05-05 19:11 59.33463 18.45542 40875 ft 555 kts 89°
2026-05-05 19:12 59.33704 18.60637 40877 ft 555 kts 89°
2026-05-05 19:12 59.33923 18.75213 40878 ft 555 kts 89°
2026-05-05 19:13 59.34126 18.89754 40881 ft 555 kts 89°
2026-05-05 19:13 59.34319 19.04678 40885 ft 555 kts 90°
2026-05-05 19:14 59.34496 19.19804 40894 ft 556 kts 90°
2026-05-05 19:14 59.34630 19.32386 40883 ft 556 kts 90°
2026-05-05 19:15 59.34775 19.47549 40883 ft 557 kts 90°
2026-05-05 19:15 59.34902 19.62728 40888 ft 557 kts 90°
2026-05-05 19:16 59.35013 19.77903 40869 ft 556 kts 90°
2026-05-05 19:16 59.35105 19.93043 40878 ft 556 kts 90°
2026-05-05 19:17 59.35179 20.08009 40884 ft 555 kts 91°
2026-05-05 19:17 59.35236 20.23133 40875 ft 555 kts 91°
2026-05-05 19:18 59.35276 20.38245 40886 ft 554 kts 91°
2026-05-05 19:18 59.35298 20.53355 40876 ft 554 kts 91°
2026-05-05 19:19 59.35303 20.68413 40881 ft 553 kts 91°
2026-05-05 19:19 59.34504 20.83300 40882 ft 548 kts 107°
2026-05-05 19:20 59.31934 20.97232 40878 ft 542 kts 116°
2026-05-05 19:20 59.28865 21.10521 40825 ft 542 kts 118°
2026-05-05 19:21 59.27282 21.17207 40417 ft 542 kts 118°
2026-05-05 19:21 59.25701 21.23862 39881 ft 539 kts 118°
2026-05-05 19:21 59.24143 21.30420 39374 ft 538 kts 118°
2026-05-05 19:21 59.22551 21.37125 38868 ft 536 kts 118°
2026-05-05 19:22 59.21013 21.43621 38336 ft 535 kts 118°
2026-05-05 19:22 59.19437 21.50300 37718 ft 535 kts 119°
2026-05-05 19:22 59.17882 21.56929 37110 ft 541 kts 119°
2026-05-05 19:22 59.16345 21.63527 36513 ft 542 kts 119°
2026-05-05 19:23 59.14805 21.70207 35935 ft 538 kts 119°
2026-05-05 19:23 59.13296 21.76826 35370 ft 532 kts 119°
2026-05-05 19:23 59.11813 21.83407 34807 ft 528 kts 119°
2026-05-05 19:23 59.10362 21.89945 34215 ft 525 kts 118°
2026-05-05 19:24 59.09167 21.96668 33586 ft 529 kts 109°
2026-05-05 19:24 59.08460 22.03517 32936 ft 532 kts 102°
2026-05-05 19:24 59.07977 22.10803 32307 ft 555 kts 100°
2026-05-05 19:24 59.07561 22.18347 31665 ft 564 kts 99°
2026-05-05 19:25 59.07173 22.25926 30978 ft 561 kts 99°
2026-05-05 19:25 59.06799 22.33424 30357 ft 553 kts 99°
2026-05-05 19:25 59.06437 22.40820 29712 ft 547 kts 99°
2026-05-05 19:25 59.06081 22.48176 29003 ft 547 kts 99°
2026-05-05 19:26 59.05726 22.55490 28319 ft 546 kts 99°
2026-05-05 19:26 59.05371 22.62805 27650 ft 541 kts 99°
2026-05-05 19:26 59.05022 22.70041 27033 ft 536 kts 99°
2026-05-05 19:26 59.04678 22.77219 26381 ft 532 kts 99°
2026-05-05 19:27 59.04338 22.84342 25746 ft 527 kts 99°
2026-05-05 19:27 59.04027 22.91286 25048 ft 496 kts 96°
2026-05-05 19:27 59.04062 22.97832 24451 ft 484 kts 89°
2026-05-05 19:27 59.04345 23.04128 23884 ft 479 kts 86°
2026-05-05 19:28 59.04705 23.10520 23260 ft 468 kts 85°
2026-05-05 19:28 59.05071 23.16682 22558 ft 457 kts 85°
2026-05-05 19:28 59.05438 23.22773 21935 ft 454 kts 85°
2026-05-05 19:28 59.05806 23.28833 21400 ft 449 kts 85°
2026-05-05 19:29 59.06172 23.34840 20879 ft 445 kts 85°
2026-05-05 19:29 59.06533 23.40786 20363 ft 441 kts 85°
2026-05-05 19:29 59.06890 23.46669 19862 ft 437 kts 85°
2026-05-05 19:29 59.07238 23.52426 19380 ft 434 kts 85°
2026-05-05 19:30 59.07588 23.58229 18956 ft 429 kts 85°
2026-05-05 19:30 59.07932 23.63953 18555 ft 423 kts 85°
2026-05-05 19:30 59.08268 23.69590 18195 ft 417 kts 85°
2026-05-05 19:30 59.08597 23.75152 17794 ft 413 kts 85°
2026-05-05 19:31 59.08922 23.80667 17385 ft 408 kts 85°
2026-05-05 19:31 59.09242 23.86084 16971 ft 397 kts 85°
2026-05-05 19:31 59.09556 23.91392 16575 ft 393 kts 85°
2026-05-05 19:31 59.09868 23.96646 16183 ft 389 kts 85°
2026-05-05 19:32 59.10171 24.01723 15856 ft 385 kts 85°
2026-05-05 19:32 59.10482 24.06873 15469 ft 382 kts 85°
2026-05-05 19:32 59.10794 24.11981 15095 ft 379 kts 85°
2026-05-05 19:32 59.11105 24.17048 14720 ft 376 kts 85°
2026-05-05 19:33 59.11414 24.22068 14354 ft 373 kts 85°
2026-05-05 19:33 59.11723 24.27059 13992 ft 370 kts 85°
2026-05-05 19:33 59.12029 24.32008 13626 ft 367 kts 85°
2026-05-05 19:33 59.12334 24.36923 13175 ft 364 kts 85°
2026-05-05 19:34 59.12631 24.41724 12797 ft 361 kts 85°
2026-05-05 19:34 59.12931 24.46546 12401 ft 358 kts 85°
2026-05-05 19:34 59.13230 24.51336 12007 ft 354 kts 85°
2026-05-05 19:35 59.13818 24.60785 11248 ft 348 kts 85°
2026-05-05 19:35 59.14109 24.65454 10872 ft 346 kts 85°
2026-05-05 19:35 59.14397 24.70076 10500 ft 343 kts 85°
2026-05-05 19:35 59.14683 24.74666 10136 ft 340 kts 85°
2026-05-05 19:36 59.14965 24.79219 9763 ft 337 kts 85°
2026-05-05 19:36 59.15244 24.83736 9357 ft 334 kts 85°
2026-05-05 19:36 59.15513 24.88214 8941 ft 331 kts 85°
2026-05-05 19:36 59.15765 24.92638 8556 ft 328 kts 85°
2026-05-05 19:37 59.16000 24.97048 8162 ft 325 kts 85°
2026-05-05 19:37 59.16210 25.01301 7780 ft 322 kts 85°
2026-05-05 19:37 59.16408 25.05617 7395 ft 318 kts 85°
2026-05-05 19:37 59.16589 25.09893 7013 ft 315 kts 85°
2026-05-05 19:38 59.16756 25.14130 6626 ft 312 kts 86°
2026-05-05 19:38 59.16922 25.18273 6258 ft 310 kts 86°
2026-05-05 19:38 59.17084 25.22402 5824 ft 288 kts 85°
2026-05-05 19:38 59.17512 25.26067 5397 ft 276 kts 61°
2026-05-05 19:39 59.18682 25.28833 5127 ft 264 kts 31°
2026-05-05 19:39 59.20323 25.30138 5045 ft 246 kts
2026-05-05 19:39 59.21991 25.30545 5004 ft 242 kts
2026-05-05 19:39 59.23663 25.30826 4995 ft 241 kts
2026-05-05 19:40 59.25346 25.31092 4810 ft 244 kts
2026-05-05 19:40 59.27036 25.31345 4494 ft 244 kts
2026-05-05 19:40 59.28727 25.31587 4169 ft 243 kts
2026-05-05 19:40 59.30406 25.31820 3864 ft 241 kts
2026-05-05 19:41 59.32067 25.32049 3624 ft 236 kts
2026-05-05 19:41 59.33670 25.32276 3499 ft 225 kts 360°
2026-05-05 19:41 59.35163 25.32177 3245 ft 206 kts 338°
2026-05-05 19:41 59.36193 25.30458 3025 ft 193 kts 302°
2026-05-05 19:42 59.36933 25.28192 2863 ft 199 kts 304°
2026-05-05 19:42 59.37712 25.26001 2621 ft 193 kts 305°
2026-05-05 19:42 59.38481 25.23877 2417 ft 189 kts 305°
2026-05-05 19:42 59.39247 25.21778 2289 ft 189 kts 305°
2026-05-05 19:43 59.40016 25.19677 2237 ft 190 kts 305°
2026-05-05 19:43 59.40776 25.17591 2200 ft 184 kts 303°
2026-05-05 19:43 59.41165 25.15254 2199 ft 184 kts 277°
2026-05-05 19:43 59.41220 25.12803 2195 ft 175 kts 274°
2026-05-05 19:44 59.41243 25.10489 2187 ft 167 kts 274°
2026-05-05 19:44 59.41254 25.08212 2194 ft 167 kts 273°
2026-05-05 19:44 59.41260 25.05926 2165 ft 169 kts 273°
2026-05-05 19:44 59.41267 25.03600 1910 ft 169 kts 273°
2026-05-05 19:45 59.41273 25.01333 1700 ft 163 kts 273°
2026-05-05 19:45 59.41279 24.99185 1451 ft 156 kts 273°
2026-05-05 19:45 59.41285 24.97133 1228 ft 142 kts 272°
2026-05-05 19:45 59.41290 24.95304 1028 ft 127 kts 271°
2026-05-05 19:46 59.41295 24.93628 845 ft 120 kts 271°
2026-05-05 19:46 59.41301 24.92013 701 ft 118 kts 270°
2026-05-05 19:46 59.41305 24.90385 556 ft 120 kts 270°
2026-05-05 19:46 59.41312 24.88752 374 ft 119 kts 269°
2026-05-05 19:47 59.41309 24.87168 303 ft 115 kts 271°
2026-05-05 19:47 59.41319 24.85555 181 ft 118 kts 270°
2026-05-05 19:47 59.41325 24.84067 143 ft 96 kts 271°
2026-05-05 19:47 59.41327 24.83067 143 ft 51 kts 270°
2026-05-05 19:48 59.41410 24.82506 143 ft 39 kts 297°
2026-05-05 19:48 59.41469 24.82292 144 ft 3 kts 296°
2026-05-05 19:48 59.41487 24.82264 144 ft 4 kts 347°
2026-05-05 19:48 59.41501 24.82337 144 ft 19 kts 89°
2026-05-05 19:49 59.41501 24.82716 144 ft 29 kts 90°
2026-05-05 19:49 59.41500 24.82976 144 ft 29 kts 90°
2026-05-05 19:49 59.41498 24.83494 144 ft 29 kts 90°
2026-05-05 19:49 59.41498 24.83886 145 ft 29 kts 90°
2026-05-05 19:50 59.41497 24.84278 145 ft 29 kts 90°
2026-05-05 19:50 59.41497 24.84670 145 ft 29 kts 90°
2026-05-05 19:50 59.41455 24.84982 145 ft 23 kts 152°
2026-05-05 19:50 59.41297 24.84995 146 ft 23 kts 181°
2026-05-05 19:51 59.41171 24.84996 147 ft 15 kts 177°
2026-05-05 19:51 59.41137 24.84982 146 ft 2 kts 193°
2026-05-05 19:51 59.41137 24.85052 146 ft 19 kts 83°
2026-05-05 19:51 59.41139 24.85118 147 ft 4 kts 88°
2026-05-05 19:52 59.41140 24.85342 147 ft 5 kts 115°
2026-05-05 19:52 59.41108 24.85371 147 ft 3 kts 169°
2026-05-05 19:52 59.41069 24.85380 146 ft 0 kts 172°